Theta_e
312 316 317 318 321 322 323 323 319 319 319 320 324 325 320 318 319 319 318 319 314 312 315 317 319 318 318 323 316 311 316 316 315 318 318 318 318 319 320 321 321 320 320 320 320 321 321 321 321 319 319 318 318 317 316 314 311 311 310 310 310 308 308 309 310 310 308 307 307 307 307 306 306 307 307 307 307 306 305 305 304 304 304 304 304 306
314 316 320 323 324 321 322 323 321 318 319 320 321 320 318 318 320 318 316 322 318 311 317 320 320 320 323 330 320 310 313 314 314 316 316 318 318 318 320 320 321 320 320 320 320 320 321 321 320 319 319 318 318 318 317 314 312 311 310 310 310 309 308 308 308 308 307 307 307 306 306 306 306 307 307 306 307 306 305 305 304 304 303 303 303 303
318 318 321 321 320 319 322 323 322 321 321 322 320 318 321 320 319 320 321 325 321 314 320 322 318 325 331 332 324 314 313 313 315 317 318 319 318 318 319 320 321 321 320 320 319 320 320 320 319 318 318 318 318 318 317 314 313 312 310 310 310 310 309 308 307 307 308 308 307 307 307 307 307 307 307 307 307 306 306 305 305 305 304 304 303 303
315 320 319 314 317 320 322 322 320 320 323 325 321 318 322 320 317 322 325 327 323 315 317 320 318 328 335 335 330 316 309 311 313 315 316 317 318 318 318 319 320 320 320 320 319 319 319 319 318 318 318 319 318 318 317 315 314 312 311 310 310 310 309 308 307 307 308 308 307 308 308 308 308 307 308 307 307 307 307 306 306 306 305 305 304 304
314 317 313 314 321 319 317 320 320 318 321 326 325 320 322 323 319 320 323 326 327 319 318 319 319 331 335 332 332 318 310 313 311 311 313 314 315 317 318 319 319 320 320 320 320 319 319 318 318 319 319 319 319 318 317 316 315 314 313 311 310 310 309 308 308 308 309 308 308 309 309 309 308 308 308 308 308 308 307 307 306 306 306 305 305 304
314 312 310 315 322 319 317 321 324 322 323 327 329 325 325 328 321 319 323 327 329 325 320 315 317 336 338 328 329 324 319 319 312 311 313 312 314 315 317 319 318 319 320 320 320 319 319 319 318 319 319 319 319 318 317 316 316 315 314 311 310 310 309 309 308 309 309 308 309 309 308 309 308 308 308 308 308 308 308 307 307 307 306 306 305 304
316 313 314 318 323 323 319 321 325 323 321 322 326 327 326 327 323 322 323 322 324 322 317 316 318 329 333 330 329 324 324 324 318 316 314 311 313 314 315 318 318 319 320 320 321 320 320 319 319 320 319 320 320 318 318 317 316 316 315 313 310 310 310 310 309 309 309 308 309 309 309 309 309 309 309 308 308 308 308 308 307 307 306 306 306 305
316 315 318 324 329 327 321 324 325 320 321 323 324 324 325 325 325 325 323 321 324 320 318 324 323 318 325 331 328 320 320 324 323 324 319 309 310 313 312 314 316 318 319 320 320 320 320 320 320 320 321 320 320 319 318 318 317 316 316 315 312 311 310 310 310 310 309 309 309 309 309 310 309 309 309 309 309 309 308 308 308 307 306 306 306 305
314 314 316 322 326 323 325 332 325 318 321 325 322 322 324 323 324 327 325 322 322 316 319 329 320 314 325 332 325 318 318 322 323 325 322 311 310 312 311 312 312 314 316 317 319 320 320 320 320 320 321 321 320 320 318 318 318 317 317 316 314 311 310 310 310 310 310 309 309 309 309 309 310 309 310 310 310 309 309 308 308 307 307 306 306 306
312 311 313 318 320 322 331 332 322 320 321 319 317 319 320 320 322 324 324 322 319 315 321 330 319 314 325 331 325 317 315 321 323 322 318 311 310 312 312 312 312 312 313 315 317 319 320 320 320 320 320 320 320 319 318 318 318 317 317 317 316 313 311 311 311 310 310 309 309 309 309 310 310 310 310 310 310 310 310 309 308 308 307 307 306 306
310 308 312 316 316 322 329 320 313 316 315 312 318 321 317 320 322 323 325 321 315 317 324 326 321 313 319 329 327 318 315 318 319 319 316 311 310 311 311 312 313 312 312 313 315 317 319 320 320 320 320 320 319 319 318 318 318 318 317 318 317 315 312 311 311 311 310 310 309 309 310 310 310 310 310 310 310 310 310 310 309 308 308 307 307 306
312 310 314 315 312 314 318 313 309 310 312 314 323 324 317 320 321 320 324 319 314 322 324 320 318 314 316 325 323 317 315 314 314 315 315 312 310 309 310 312 313 312 312 313 314 317 318 319 319 320 320 319 319 319 318 318 318 318 318 317 317 316 314 312 311 311 311 310 309 309 310 310 310 311 310 310 310 310 310 310 310 309 308 308 307 307
319 316 314 312 311 311 314 316 312 310 315 318 321 322 317 317 318 319 321 318 317 322 318 314 316 313 317 322 318 315 315 313 311 311 311 311 309 309 310 312 313 313 312 312 314 316 318 318 319 319 319 319 319 319 319 319 318 319 318 317 318 317 316 313 312 312 311 311 310 309 310 310 311 311 310 310 310 310 310 310 310 310 309 309 308 307
322 323 316 311 312 311 312 319 317 314 316 315 317 321 319 317 317 319 319 315 317 319 314 314 315 315 319 319 315 314 312 311 310 309 309 308 307 307 310 312 313 312 312 313 314 315 317 318 319 319 319 319 319 319 319 319 319 319 318 318 318 318 317 315 313 313 312 311 311 310 310 310 311 311 311 310 310 310 310 310 310 310 310 309 309 308
317 320 319 314 311 311 312 317 321 322 317 313 316 316 318 320 319 319 319 315 316 316 314 311 314 320 321 314 313 312 309 309 309 308 308 307 306 306 309 312 313 312 312 312 313 314 316 317 318 318 319 319 319 319 319 319 319 319 319 318 318 318 317 316 314 314 313 312 312 311 310 310 310 311 311 311 311 310 310 310 309 309 310 310 309 308
311 315 320 314 309 310 311 310 313 319 316 311 312 312 315 320 321 316 314 315 316 316 316 313 315 323 320 312 312 312 310 309 307 306 306 306 305 306 307 309 311 313 314 313 313 314 314 316 317 318 319 319 319 319 319 319 319 319 319 318 318 318 318 317 316 315 315 315 313 312 311 311 310 311 311 311 311 311 310 310 309 310 310 310 310 309
311 317 321 314 310 311 310 309 309 311 315 312 310 313 314 315 322 319 310 312 314 314 316 315 315 318 317 314 315 314 313 312 308 307 305 305 305 306 306 307 308 311 314 314 315 314 314 315 316 317 318 319 319 319 319 319 319 319 319 318 318 318 317 317 316 316 316 316 315 314 313 312 311 312 312 312 311 311 311 310 309 310 310 310 310 310
312 319 322 315 312 311 307 308 310 307 310 314 312 315 313 311 320 322 314 316 316 315 319 317 314 315 317 318 316 313 312 311 310 308 305 304 305 305 306 307 307 309 310 312 314 315 316 315 315 316 317 318 319 319 319 319 319 319 319 319 318 318 318 318 317 317 316 317 317 316 315 313 313 313 313 313 312 311 311 310 309 309 309 310 311 310
311 317 323 315 311 313 310 310 314 311 309 312 312 312 313 316 322 320 317 320 316 313 320 319 313 313 317 318 315 313 312 310 309 309 308 306 305 304 306 307 307 308 308 309 310 312 314 316 316 317 317 317 318 318 319 319 319 319 318 318 318 318 318 318 318 318 318 317 317 318 317 316 315 314 313 314 313 312 311 310 309 309 309 310 311 310
312 314 319 317 310 311 314 313 318 320 313 312 313 311 315 322 322 317 314 317 316 315 320 319 313 314 318 318 316 314 314 311 309 310 309 306 304 305 306 307 308 308 308 308 308 308 310 312 315 317 317 318 318 318 319 319 319 319 319 319 318 318 318 318 318 318 318 318 318 318 319 318 317 316 314 314 314 312 311 310 309 309 309 310 310 310
314 310 316 323 315 311 316 316 318 322 316 314 316 315 315 314 313 313 311 311 314 317 320 317 314 319 321 315 313 314 316 315 311 310 308 305 304 305 306 308 308 308 308 308 308 308 308 309 311 313 315 317 318 318 318 318 319 319 319 320 319 319 318 318 318 318 319 319 318 319 319 319 319 318 316 315 314 313 312 311 310 309 310 310 311 310
313 312 318 323 318 316 320 315 312 314 315 317 317 314 316 315 313 313 312 312 313 313 316 315 315 322 319 312 314 316 316 314 309 307 307 305 305 306 307 308 308 308 308 308 308 308 308 308 309 309 311 313 315 317 318 318 319 319 319 319 320 320 319 319 319 319 319 319 319 318 319 320 320 320 319 318 316 314 312 311 310 310 311 311 311 311
312 315 317 317 316 316 316 309 304 306 310 313 312 311 316 319 317 315 316 319 316 311 312 312 314 322 319 314 317 314 310 309 305 305 306 304 305 307 308 308 308 308 308 307 308 308 308 309 308 309 309 310 311 313 315 317 318 319 319 319 319 320 320 321 321 320 319 319 319 319 318 319 320 320 321 320 318 316 313 312 311 311 311 312 313 312
312 314 312 315 319 317 313 308 304 306 309 309 308 308 311 315 316 317 318 318 315 314 314 312 314 321 319 315 313 307 305 306 305 306 305 304 306 307 307 308 308 307 308 307 308 308 307 308 308 308 309 309 309 310 311 312 314 316 318 319 319 319 320 320 320 321 321 320 320 319 319 319 320 320 321 321 320 318 315 314 313 312 312 312 313 314
311 316 313 312 316 315 314 314 311 312 312 309 308 308 309 311 313 313 313 312 311 313 314 315 318 320 318 315 311 307 308 308 305 305 306 304 306 307 307 307 307 307 307 307 307 307 307 308 308 308 308 308 309 309 309 310 310 311 313 316 318 319 320 320 320 321 321 321 322 321 320 319 319 319 320 321 321 320 318 316 315 314 313 313 313 314
310 314 313 311 313 312 312 315 316 316 311 308 308 307 308 311 310 310 311 310 312 313 311 315 318 315 314 315 314 313 314 311 306 305 305 306 306 307 307 307 307 307 307 307 307 308 308 307 307 308 307 307 308 307 307 308 308 308 309 311 313 315 318 320 320 321 321 321 322 322 322 321 320 319 320 320 321 320 320 319 318 317 315 313 313 314
310 310 312 314 314 312 311 311 312 311 308 306 308 308 308 310 310 311 311 310 313 314 311 314 315 310 310 313 313 314 315 314 310 305 304 306 307 307 307 307 307 308 307 308 308 307 308 307 307 308 307 307 307 307 307 307 307 307 307 308 309 311 313 315 318 319 321 321 322 322 323 322 322 321 321 321 321 320 320 320 320 320 318 315 314 313
312 309 310 312 312 310 310 310 308 307 307 307 309 309 310 311 310 310 310 310 312 310 309 315 315 310 311 312 313 314 314 312 309 304 304 307 307 307 307 307 308 308 307 308 307 307 308 307 307 307 307 307 307 307 307 307 307 307 307 307 307 308 309 310 312 314 316 318 320 321 322 322 323 323 322 322 321 320 320 320 320 319 318 318 316 314
311 309 307 307 310 310 309 307 306 306 307 308 309 310 311 310 309 308 310 313 312 308 309 314 315 312 313 314 315 313 309 306 305 304 305 307 307 307 307 307 307 307 307 307 307 307 307 307 307 307 307 307 307 307 307 307 307 307 307 307 307 307 307 308 308 309 310 312 314 316 318 320 322 323 323 323 322 322 321 320 319 318 316 317 317 315
307 311 309 305 307 310 309 308 306 306 307 307 308 310 310 310 309 308 311 313 310 309 309 310 311 312 311 313 313 308 303 302 304 306 307 307 307 307 307 307 307 306 307 307 306 306 306 306 306 306 306 306 306 306 306 306 306 306 306 306 307 307 307 307 307 307 307 308 308 309 311 313 316 319 321 323 323 323 321 319 318 318 316 316 316 315
305 309 309 306 306 308 310 310 307 306 307 306 307 309 308 308 308 306 307 309 308 308 308 306 307 309 307 305 304 302 302 304 305 306 307 307 306 307 306 307 306 305 305 305 304 305 305 306 306 306 306 306 305 306 306 306 306 306 306 306 306 306 306 306 306 307 306 307 306 306 306 307 308 311 315 318 321 322 322 320 319 318 317 315 314 313
305 307 308 307 306 307 308 308 307 306 306 304 304 307 307 307 309 308 307 308 308 308 308 305 305 308 307 301 300 302 303 304 305 306 307 306 306 307 306 305 304 303 302 302 302 302 302 303 304 304 304 304 304 304 304 304 304 304 305 305 305 306 306 306 306 306 306 306 306 306 306 305 305 306 307 311 314 318 321 321 320 319 317 315 313 313
307 306 307 307 305 305 306 306 307 306 305 306 307 307 306 306 308 308 307 308 307 307 307 306 306 309 309 305 305 308 305 304 306 306 305 305 306 306 305 303 302 301 301 301 301 301 301 301 301 301 301 301 302 302 302 302 302 302 303 303 303 303 304 304 305 305 305 305 305 305 305 305 304 304 304 306 309 314 318 320 321 319 317 315 314 313
307 305 305 306 304 305 305 304 305 304 303 308 310 307 305 305 305 307 307 306 307 307 307 307 306 307 307 307 310 311 307 305 305 304 303 304 306 305 302 301 302 301 301 300 300 300 300 301 300 301 300 300 301 301 301 301 301 302 302 301 302 302 302 302 302 303 303 303 303 304 303 303 303 303 304 304 307 312 316 319 320 319 316 315 314 312
305 304 304 304 303 304 303 302 305 305 303 306 308 304 303 304 304 305 306 307 307 306 305 305 306 306 304 305 306 306 305 304 303 303 303 304 305 304 301 302 302 302 301 301 300 300 300 300 300 300 300 300 301 301 301 301 301 301 301 301 302 301 302 302 301 301 302 302 302 303 303 303 303 303 304 305 308 312 315 317 319 318 316 315 313 312
304 304 303 303 303 303 303 303 306 305 303 304 307 305 303 305 305 304 305 306 304 304 305 306 307 305 303 303 304 304 304 304 302 302 302 304 305 303 301 302 302 302 302 302 301 301 301 300 300 300 300 300 300 300 300 300 300 300 300 300 301 301 301 301 301 301 301 302 302 302 303 303 303 303 303 305 309 313 315 317 317 317 316 314 312 311
303 305 303 302 302 302 304 305 305 303 303 306 307 304 303 305 304 303 303 305 303 302 303 306 308 305 303 304 304 304 304 303 302 302 302 303 305 303 302 302 302 302 303 302 301 301 300 300 300 300 300 300 299 299 299 299 299 299 299 300 300 301 301 301 301 301 301 302 302 302 304 305 305 304 304 306 310 313 315 316 317 316 315 313 312 311
301 303 303 302 303 302 302 304 304 304 305 306 306 304 302 302 302 300 302 304 303 300 300 304 306 304 301 302 304 303 303 303 304 305 302 302 303 302 302 302 302 303 303 302 301 301 300 300 300 300 300 301 300 300 300 300 300 300 300 300 300 300 300 300 300 301 301 302 303 304 305 306 307 307 306 308 311 313 314 315 316 316 314 313 311 309
302 302 302 302 303 303 303 304 304 305 305 305 305 303 301 301 300 300 303 305 303 299 299 301 302 301 299 301 302 302 302 303 305 305 301 301 303 302 302 303 302 303 302 302 302 301 301 300 300 301 301 301 301 301 300 301 301 300 300 300 300 300 300 300 301 301 302 304 304 305 306 307 308 308 308 309 311 313 314 315 315 314 313 311 309 307
305 304 303 302 303 304 303 303 304 303 303 304 305 303 302 301 300 301 306 306 302 299 299 300 300 300 300 300 301 302 304 304 304 303 301 302 303 302 302 303 302 302 302 302 302 302 301 301 301 302 302 302 301 301 301 301 301 301 302 302 302 302 301 300 302 302 304 305 305 305 306 307 309 309 309 310 311 312 314 314 313 313 311 309 307 305
304 304 302 302 304 304 303 302 303 303 303 303 303 302 301 300 301 305 307 304 300 299 300 301 301 301 301 301 301 302 303 303 302 302 302 302 302 302 302 302 301 301 301 301 302 302 301 301 301 302 302 302 302 301 301 302 302 302 303 303 303 303 302 302 303 304 305 306 305 306 307 308 309 310 310 311 312 313 313 312 312 310 308 306 305 304
303 301 301 302 302 302 302 302 302 302 302 301 301 301 300 300 303 305 303 300 299 300 300 300 300 301 301 301 301 301 301 300 301 301 301 301 301 301 301 301 301 300 300 300 301 301 301 301 301 302 302 302 302 302 302 302 303 303 304 304 304 304 303 304 305 305 305 306 305 306 307 308 309 310 311 312 312 312 311 310 309 307 305 305 304 302
300 300 301 302 301 300 301 301 301 302 302 299 300 300 300 301 302 301 299 299 300 300 299 299 299 299 299 300 299 299 300 300 300 300 300 300 301 300 300 300 300 300 300 300 301 301 301 301 301 302 302 302 302 302 302 303 304 304 304 304 304 304 304 305 305 305 306 306 306 306 308 308 309 311 311 311 310 310 309 308 306 305 303 302 301 299
299 299 300 301 300 300 301 302 302 302 299 298 299 301 300 299 298 298 298 299 300 300 299 299 299 299 299 299 299 299 299 299 299 300 300 300 300 300 300 300 300 300 300 300 301 301 301 301 302 302 302 302 302 302 303 303 304 304 304 304 305 305 305 305 305 305 305 306 306 307 308 310 310 310 310 309 308 308 307 305 303 301 299 298 297 296
299 299 299 299 300 299 300 302 301 298 297 297 299 299 298 297 297 297 298 299 300 299 299 298 298 299 299 299 299 299 299 298 299 299 299 300 300 300 301 300 300 300 301 301 302 301 301 302 302 302 302 302 302 302 303 304 304 304 304 305 305 305 305 305 305 305 306 306 307 307 309 309 309 308 308 307 306 305 303 301 300 298 297 296 296 295
297 296 296 298 299 298 297 297 296 296 297 297 297 297 297 297 297 297 297 298 299 299 298 298 298 298 298 299 299 299 299 298 298 298 299 299 300 300 301 301 300 301 301 302 302 302 302 302 302 302 302 302 302 303 304 304 304 304 304 304 305 305 304 304 305 306 306 307 308 308 308 307 306 305 304 302 301 301 299 299 298 297 296 296 296 296
297 295 295 297 298 298 298 298 296 296 297 297 296 297 297 297 297 297 297 297 297 297 298 298 298 298 298 298 298 298 298 299 299 299 299 299 300 300 301 301 301 301 301 301 301 302 302 302 302 303 302 302 302 303 303 304 304 304 304 304 304 304 304 304 305 306 306 307 307 306 305 304 302 300 299 299 298 299 299 298 298 296 296 295 295 295
297 295 296 298 298 297 297 297 296 296 297 296 296 297 296 297 297 297 296 297 296 297 297 297 297 297 298 297 298 298 298 299 299 299 300 300 300 301 301 301 301 300 300 300 301 302 302 302 302 302 302 302 302 303 303 304 304 304 304 303 303 303 303 304 304 305 305 304 303 302 301 299 298 298 299 299 299 299 299 298 296 294 293 293 293 292
296 296 297 297 297 296 296 296 295 296 296 296 296 296 296 297 297 296 297 296 296 296 297 297 297 297 297 298 298 298 299 299 299 299 299 300 300 301 300 300 300 300 300 300 301 302 302 303 302 302 302 302 303 303 304 304 304 303 302 302 302 303 303 304 303 303 302 301 300 299 299 299 299 299 299 299 298 298 297 295 294 292 292 293 293 293
296 296 296 296 296 296 296 296 295 295 295 295 296 296 296 296 296 296 296 296 296 296 297 297 297 298 298 298 299 299 299 299 299 299 299 300 300 301 301 301 300 300 300 300 302 302 303 302 302 302 302 303 303 303 304 304 303 302 301 301 301 301 301 301 301 300 299 299 299 299 299 299 299 299 298 298 297 296 294 293 293 294 294 295 295 295
296 296 296 296 296 296 296 295 295 295 295 295 295 296 296 296 296 296 296 296 296 297 297 297 297 298 298 298 298 299 299 299 299 300 300 300 301 301 301 301 301 301 301 302 302 302 302 302 302 302 303 303 303 303 304 303 302 301 301 301 301 301 301 300 299 299 299 299 299 299 299 299 299 298 298 298 296 295 294 295 295 296 296 296 296 295
Wind_Speed
3 3 1 3 5 6 6 5 5 4 4 4 4 5 3 3 2 5 4 5 2 2 1 2 5 6 6 5 4 8 12 11 12 10 12 15 17 21 24 28 31 33 35 34 35 35 33 31 31 29 27 25 22 19 17 15 14 13 10 8 7 7 8 8 8 7 5 4 5 5 5 5 5 3 2 2 2 3 3 3 3 4 5 5 5 5
4 2 3 7 8 7 5 5 5 3 4 3 5 4 1 2 2 5 3 4 3 1 3 2 2 6 6 5 4 5 8 10 15 14 14 17 18 20 24 27 30 31 32 33 34 34 34 34 33 32 30 27 25 22 20 18 16 15 12 9 7 7 7 7 7 6 5 5 5 6 7 7 6 5 4 4 4 4 4 4 3 4 5 5 5 4
4 2 8 8 6 3 3 5 5 4 5 3 3 3 1 2 3 5 3 5 5 1 4 4 4 6 7 5 4 5 6 10 20 23 22 24 24 24 26 28 29 31 33 33 34 35 36 36 35 34 32 29 27 24 21 20 19 17 14 11 9 7 7 8 8 7 8 9 8 8 8 8 7 6 6 5 6 6 5 5 5 5 6 6 5 4
2 5 7 3 6 6 3 3 6 4 3 3 3 2 2 2 1 3 4 6 4 2 1 2 3 5 6 6 4 4 6 7 15 22 24 25 26 29 31 32 33 35 37 36 36 36 37 38 37 36 34 31 29 27 24 22 22 19 15 13 10 8 8 9 10 11 11 11 11 9 8 7 7 6 6 7 7 7 7 6 6 7 8 8 7 5
5 8 5 5 5 5 2 2 5 5 1 2 3 4 3 2 3 4 4 5 4 3 3 5 4 5 4 5 5 1 1 2 5 11 17 19 23 26 27 30 35 38 41 41 39 39 40 40 40 38 35 33 32 30 27 25 23 20 16 14 12 9 9 10 12 14 14 14 13 11 9 8 8 7 6 7 7 7 7 6 6 7 8 8 8 6
6 6 3 3 3 3 3 2 3 6 2 4 3 7 7 5 4 3 2 5 5 4 4 4 2 5 5 4 5 4 4 3 1 4 10 13 15 19 24 28 33 37 41 42 42 41 42 42 41 39 37 35 35 33 29 27 23 20 17 15 14 11 10 11 13 15 15 15 14 12 10 8 8 8 7 6 6 5 6 6 6 7 7 8 8 8
4 2 3 3 4 5 3 3 5 6 5 2 5 7 7 6 5 3 2 3 2 2 3 3 2 4 6 4 5 4 6 7 5 4 7 8 9 14 21 27 32 37 40 41 42 42 42 44 43 41 38 38 37 35 31 28 24 21 19 17 15 13 12 12 13 15 15 15 14 11 9 8 8 9 8 6 5 4 4 4 5 6 6 6 8 8
3 2 5 5 5 6 3 3 5 7 7 2 5 6 8 6 5 5 5 4 2 3 3 4 3 2 4 5 5 4 5 8 7 7 7 5 4 7 13 20 28 35 40 42 44 43 43 45 45 42 39 39 39 37 33 30 27 24 21 18 16 15 14 13 14 15 15 15 15 12 10 8 8 9 7 6 6 4 3 3 3 4 4 5 6 8
2 2 3 2 5 3 3 4 7 9 5 5 4 7 7 5 5 5 6 3 1 1 3 5 2 1 4 6 5 5 4 7 7 7 8 9 13 12 13 15 21 28 35 41 44 44 44 45 45 42 40 40 40 38 36 33 29 26 23 20 18 18 16 15 14 15 15 15 15 14 11 10 9 9 8 7 7 5 4 3 2 2 3 3 4 6
2 4 4 3 3 3 6 4 7 9 3 4 6 7 5 6 5 4 5 3 3 3 4 6 1 2 4 5 5 3 2 5 7 6 6 10 16 15 13 12 14 21 29 36 41 43 44 44 44 42 42 42 41 39 37 34 30 28 25 23 22 20 19 17 16 16 16 16 16 15 13 10 9 10 9 8 8 7 5 4 3 2 1 1 2 3
4 2 2 2 3 5 4 1 3 5 3 3 6 6 6 6 5 4 3 4 4 1 6 7 2 2 3 5 4 3 2 3 5 5 5 9 14 14 10 9 7 15 23 30 36 38 40 41 42 42 43 43 41 40 38 35 32 30 28 26 24 23 21 20 19 18 17 17 18 17 15 12 11 10 9 8 8 7 6 5 5 4 3 2 1 1
7 3 2 3 4 3 5 4 2 2 3 4 4 5 4 3 4 4 4 3 3 3 6 5 1 4 2 5 3 4 5 5 5 5 5 7 12 13 8 9 7 5 15 24 31 34 35 37 39 42 44 43 41 40 39 37 35 33 31 30 27 25 24 22 21 20 18 18 19 19 17 15 13 11 9 8 7 7 6 6 6 5 5 4 3 3
5 4 4 5 3 2 5 3 3 5 5 5 4 5 3 2 3 2 3 0 2 5 4 3 1 3 4 6 4 5 7 7 3 2 3 5 9 12 9 10 11 6 7 17 26 31 33 35 37 40 43 44 42 40 38 37 36 35 34 32 30 28 27 25 23 22 20 19 19 20 20 18 16 14 11 9 8 8 8 7 7 6 6 5 5 4
4 5 5 3 2 0 4 4 1 2 2 3 4 4 3 2 2 2 3 1 3 4 2 2 2 1 3 4 3 4 6 6 4 4 2 3 7 12 14 13 10 7 2 11 21 26 30 33 35 37 39 41 42 40 38 37 37 37 37 35 34 31 29 27 25 23 22 21 20 21 21 19 18 17 14 11 10 9 9 9 8 7 7 7 6 6
0 4 4 1 2 3 1 5 5 4 3 2 4 5 4 4 3 3 4 2 3 2 2 2 1 2 2 2 4 4 5 5 5 4 3 5 8 14 21 21 15 8 2 6 14 21 26 29 32 35 36 37 37 37 37 37 37 38 38 38 36 34 32 30 27 25 24 22 21 22 22 22 20 18 16 14 12 11 11 10 9 8 8 8 8 8
1 4 6 4 3 2 1 2 4 6 3 1 3 5 2 4 4 1 3 4 3 1 1 1 2 3 3 3 4 4 5 5 4 2 4 8 13 21 26 26 23 18 10 3 6 13 20 25 28 32 34 35 34 34 36 37 38 38 39 39 38 36 34 32 30 27 25 23 21 22 23 23 22 21 19 18 15 14 13 11 10 9 9 9 9 10
1 4 6 4 3 3 2 1 2 3 1 1 2 3 3 4 7 4 1 1 3 1 3 1 2 3 1 1 3 5 5 6 5 4 4 9 17 24 25 24 27 25 20 14 6 2 9 16 23 27 30 32 32 33 34 35 37 38 38 39 39 37 35 34 32 30 27 24 23 23 24 25 24 23 22 20 18 16 14 13 12 11 11 11 12 12
2 3 6 1 1 4 6 3 5 4 3 4 2 4 2 2 4 4 1 3 4 2 4 1 2 2 1 1 1 1 3 5 5 5 5 10 16 21 20 21 25 26 25 22 17 10 3 4 11 18 22 26 29 31 32 33 33 34 36 38 39 39 38 36 34 31 30 28 25 23 24 25 25 24 23 21 19 18 16 15 14 13 13 13 13 14
3 2 7 2 2 5 7 4 3 5 4 4 4 3 2 2 0 1 2 1 0 2 3 4 2 3 3 4 4 6 6 3 3 5 5 8 12 16 17 20 24 25 25 24 23 19 14 8 1 6 10 16 21 25 28 29 29 31 34 36 37 39 39 38 36 34 33 31 28 26 24 25 25 24 23 22 20 20 19 18 17 16 15 14 15 16
2 1 5 4 2 4 5 3 1 3 5 4 3 2 2 2 3 1 2 2 2 2 2 3 3 2 4 5 6 8 7 4 1 4 5 6 10 14 16 20 23 24 24 23 23 22 21 18 13 7 3 3 8 13 18 22 24 27 30 32 35 37 38 38 38 37 35 34 32 29 26 26 26 25 24 23 22 21 21 20 19 18 17 16 17 17
3 2 3 5 5 2 1 1 3 3 0 2 2 2 1 2 2 1 1 1 2 3 2 1 2 5 5 4 5 7 6 6 3 1 2 6 10 13 15 18 21 22 22 21 21 20 20 19 18 15 13 8 5 2 6 10 13 19 24 27 31 34 35 37 38 38 37 35 34 33 31 28 27 26 25 24 24 23 23 22 22 21 20 19 19 19
1 1 2 3 4 2 4 4 3 4 3 2 2 2 2 3 3 2 1 2 1 2 3 3 2 6 4 2 4 5 5 4 3 1 2 6 10 12 13 16 18 19 19 18 18 18 18 18 17 17 16 14 11 8 4 2 4 10 16 20 24 28 31 34 36 37 38 35 33 34 34 33 31 29 28 27 26 25 25 25 25 23 22 22 21 20
2 3 2 3 4 4 7 5 1 2 3 4 2 1 3 3 4 4 3 3 0 1 2 3 1 5 5 3 3 3 3 3 3 1 1 6 9 10 13 14 15 15 15 15 14 14 14 15 15 15 15 15 14 12 10 7 4 4 8 13 18 22 25 28 31 34 36 35 32 31 31 33 34 33 31 30 29 28 27 27 26 26 25 24 22 22
2 2 2 3 4 4 6 5 4 3 4 4 1 2 3 2 3 4 4 3 2 2 2 2 2 5 5 3 1 0 3 4 2 1 2 5 8 10 12 13 13 12 12 12 12 12 11 11 11 12 13 13 13 13 13 11 8 6 4 7 12 16 19 23 26 30 32 33 33 33 32 33 34 35 36 35 32 30 29 29 28 27 27 25 24 23
1 0 2 2 4 6 6 5 5 5 3 2 1 1 1 3 5 3 2 3 1 3 4 4 4 5 4 4 4 3 5 5 1 2 2 4 7 9 10 11 12 12 11 11 11 11 11 10 11 12 12 11 11 11 12 12 12 10 8 6 7 9 13 17 21 25 28 30 32 35 36 34 34 35 37 39 37 34 32 31 30 29 29 28 26 25
1 1 2 2 2 4 3 2 3 2 1 0 2 2 1 4 5 2 2 4 1 3 3 4 3 4 5 5 6 5 4 4 3 2 2 3 6 8 9 10 11 11 11 11 11 11 11 11 11 11 11 11 10 10 10 10 10 10 10 9 8 7 8 11 15 19 23 27 30 33 35 36 37 39 41 41 38 35 35 35 35 33 31 30 28 26
3 0 3 5 5 6 5 6 5 2 1 2 1 3 3 1 3 4 4 3 4 3 2 5 3 2 5 6 6 6 3 2 3 3 2 3 6 7 8 9 10 10 10 10 10 10 10 10 10 10 9 9 10 10 10 10 9 9 9 9 9 9 8 9 11 14 17 22 26 30 32 34 36 39 41 40 37 36 37 38 40 39 36 32 29 27
4 2 2 4 5 6 6 7 4 2 3 4 3 4 6 3 3 5 4 4 4 3 4 7 6 4 7 7 7 7 3 1 4 5 1 4 6 6 6 8 8 8 8 9 9 10 10 10 10 10 9 9 9 9 9 9 9 9 9 9 9 9 9 10 10 11 13 15 19 23 26 29 31 33 35 36 37 39 41 41 43 42 37 33 30 28
4 2 3 3 3 5 4 5 3 1 3 3 4 6 7 5 5 6 7 6 6 5 7 7 8 7 7 6 8 8 4 2 4 3 2 6 5 5 5 7 7 7 8 9 10 11 11 12 12 12 12 11 11 11 11 11 11 11 10 10 10 10 10 11 12 12 13 13 15 16 18 21 25 28 30 32 34 38 44 45 42 37 32 31 30 28
3 2 2 3 3 5 4 5 3 3 2 3 4 6 6 6 8 8 7 6 7 8 9 5 7 9 7 7 8 7 5 3 3 2 5 5 4 4 5 6 6 8 9 10 11 12 12 13 14 14 14 15 15 15 16 16 16 16 16 16 14 13 13 14 15 15 16 16 16 15 16 16 19 22 25 29 32 37 42 42 37 32 30 31 30 27
2 2 1 2 1 5 5 5 3 5 4 5 6 6 5 6 7 6 5 4 4 7 8 5 6 9 7 7 9 7 3 4 6 7 6 4 4 4 6 6 7 8 9 10 11 12 13 14 15 16 17 17 18 19 20 20 21 21 21 21 20 19 19 18 18 18 19 19 18 18 18 17 18 20 22 26 30 34 37 35 33 32 32 31 29 25
2 1 1 3 2 5 3 4 7 4 3 6 8 6 7 7 6 5 5 5 6 6 7 5 5 7 7 6 7 6 3 7 9 7 4 4 4 4 5 6 8 10 11 12 13 14 15 16 17 18 18 19 20 22 23 24 24 24 24 24 24 24 24 24 23 23 23 22 22 22 21 20 20 21 23 26 27 28 30 30 29 28 30 33 31 28
3 2 1 2 2 4 3 5 5 3 5 7 7 8 12 11 8 6 4 4 7 6 5 6 6 6 5 5 5 4 3 4 4 3 2 1 2 4 4 7 9 12 13 14 15 16 17 18 18 19 20 20 21 23 24 25 26 26 26 27 27 27 27 28 28 27 27 26 25 25 24 23 23 23 24 26 27 26 26 27 27 26 29 34 33 30
2 3 2 2 2 4 4 1 1 1 5 7 5 6 9 9 9 9 8 7 7 5 4 4 4 3 3 5 6 5 3 1 1 2 2 3 1 3 4 8 11 14 15 16 17 18 18 19 20 20 21 21 22 23 24 25 27 28 28 28 29 28 28 29 30 30 29 29 28 27 26 25 25 25 25 26 28 28 26 26 26 26 30 35 34 32
1 2 2 1 2 3 2 3 2 4 7 5 4 3 3 2 5 7 7 6 5 4 2 3 4 2 2 3 3 3 1 3 5 4 4 4 4 3 6 12 13 15 16 18 19 20 20 21 21 22 23 23 24 24 25 27 28 29 30 30 31 31 30 30 30 30 30 30 28 27 26 25 25 25 27 27 28 29 27 26 26 26 32 37 35 32
3 3 2 1 1 1 1 3 3 5 5 5 6 3 2 2 2 0 4 6 4 3 2 1 2 2 1 1 1 2 3 6 7 7 5 5 6 3 9 14 15 16 17 19 20 20 21 22 22 23 24 25 26 27 28 29 30 31 33 32 32 33 32 32 32 31 31 30 29 27 25 24 24 25 27 29 29 29 28 26 27 30 36 37 33 30
5 3 2 1 2 2 2 2 3 4 6 6 4 3 1 1 1 1 2 4 5 3 2 3 2 1 1 2 2 3 4 6 8 7 5 4 6 8 12 15 15 17 19 20 20 21 22 22 23 23 24 25 27 28 29 30 31 33 35 34 34 34 34 34 34 33 31 31 30 27 25 24 23 25 27 29 29 28 28 27 30 36 39 36 32 30
4 2 3 3 2 2 2 2 3 2 4 5 4 4 2 1 3 2 2 1 3 4 2 1 1 3 4 4 4 3 0 3 4 5 4 4 7 10 12 14 16 18 20 21 21 22 22 23 23 23 24 25 27 28 29 30 31 33 35 35 35 34 35 35 35 34 32 31 30 28 25 23 23 24 26 27 27 26 26 28 32 38 38 35 31 28
3 1 3 3 1 1 3 2 2 3 4 5 5 6 6 2 3 3 3 0 3 4 5 3 3 6 7 6 4 3 3 1 3 7 10 11 11 12 14 16 18 20 21 22 22 23 23 23 24 23 24 26 28 29 30 31 32 32 34 34 34 34 35 35 34 32 31 30 29 27 24 22 22 22 23 24 24 23 25 28 34 39 37 32 29 25
4 3 3 2 2 2 3 2 3 3 3 3 4 7 8 4 3 3 2 3 5 7 7 4 6 8 9 8 3 4 3 4 6 11 16 17 17 18 19 20 21 22 23 23 22 23 24 24 24 24 25 27 29 30 30 31 31 32 32 32 32 34 35 34 33 31 29 28 26 25 24 22 21 21 21 21 21 21 24 29 35 37 31 25 23 21
2 2 1 2 2 2 3 2 3 3 3 3 5 7 7 2 3 2 3 5 6 9 9 7 8 9 9 8 5 5 8 12 14 18 21 21 23 24 22 22 22 22 23 24 23 24 25 26 25 25 27 29 30 30 30 30 30 30 31 31 32 34 33 32 31 30 28 27 25 24 23 21 20 18 18 19 20 22 25 28 31 29 23 20 18 17
1 1 2 1 1 1 3 2 2 3 2 2 3 6 6 2 3 3 5 7 8 8 10 10 10 10 10 11 10 12 16 20 21 22 23 23 25 25 24 24 25 25 26 26 25 25 27 28 28 27 29 30 30 30 28 28 29 30 29 30 32 32 31 30 31 31 30 29 28 26 22 19 16 15 16 18 20 23 26 28 27 23 20 19 16 13
1 1 2 2 2 1 1 1 1 3 2 1 2 4 4 2 4 9 12 12 9 9 12 14 14 14 13 14 16 18 21 22 24 24 24 25 25 25 26 27 28 29 29 28 27 26 27 29 30 29 31 32 31 29 27 27 29 29 28 30 31 30 30 32 33 32 32 31 30 25 19 15 14 15 17 19 22 26 29 28 24 20 17 14 11 10
1 2 2 2 1 1 1 2 3 4 2 1 2 1 1 6 13 16 16 15 13 12 14 15 16 16 15 17 20 22 23 24 25 26 26 27 26 26 28 28 29 30 30 29 28 28 28 29 30 30 32 33 32 29 27 27 28 28 29 30 30 30 32 33 33 32 31 29 25 21 17 16 17 19 21 24 28 31 29 24 20 17 14 11 9 7
2 3 3 3 2 2 4 5 7 10 10 8 5 5 8 17 20 18 16 16 15 14 15 18 21 20 19 20 22 23 24 25 26 27 28 28 28 28 29 30 30 29 29 29 29 28 28 29 29 31 33 33 31 29 27 25 25 27 30 31 31 31 33 31 28 25 22 19 16 16 19 22 23 25 27 28 28 26 23 19 16 15 13 11 9 6
4 2 2 2 2 4 5 7 9 13 17 14 9 11 18 23 20 15 15 15 16 16 19 21 22 22 21 21 23 25 27 27 28 29 29 30 30 29 29 30 30 28 28 29 30 29 29 28 29 32 34 34 31 28 25 23 24 28 32 32 32 32 30 24 18 15 14 14 15 21 27 30 30 29 29 27 24 22 20 18 16 14 12 11 8 6
5 2 0 2 2 3 4 4 4 10 16 18 18 23 27 24 17 13 15 17 18 19 20 21 22 23 23 23 25 28 29 29 29 30 30 30 30 29 29 29 30 29 29 29 30 30 29 29 30 32 34 33 30 26 23 23 25 27 30 31 31 28 21 14 13 15 19 22 25 30 34 35 34 32 30 28 25 23 20 17 15 13 11 10 8 7
2 3 1 2 3 3 4 9 14 21 25 25 24 24 23 18 16 17 19 19 19 20 22 22 23 25 26 27 27 28 29 29 28 29 29 30 30 29 30 31 31 32 32 31 30 30 30 29 30 32 32 30 26 23 22 22 23 25 26 26 24 21 13 10 18 24 28 31 34 36 37 35 34 32 29 25 22 20 18 15 13 11 10 9 8 7
3 3 2 2 3 4 6 11 16 17 18 20 22 22 20 19 21 23 22 21 22 24 25 23 23 25 26 27 26 26 27 29 29 29 30 30 30 31 32 33 33 33 32 31 30 29 29 30 31 31 29 25 21 18 18 18 19 18 16 10 7 6 10 21 31 36 38 39 37 35 34 32 30 28 26 23 20 18 16 14 12 11 11 11 10 10
2 3 3 1 3 4 5 10 12 8 7 16 25 27 25 23 24 25 25 26 28 28 27 25 25 24 24 24 24 24 27 29 30 30 30 30 30 31 32 32 32 31 30 30 29 29 30 30 30 27 24 21 17 14 15 15 11 5 3 10 16 22 28 36 41 42 40 37 34 33 31 29 27 26 24 21 19 18 17 17 15 14 14 14 14 13
6 7 5 3 4 7 11 19 21 13 11 20 28 30 28 27 27 28 30 30 30 28 26 24 23 23 23 25 26 26 28 30 30 29 29 29 29 29 30 30 29 29 28 28 28 30 31 29 27 23 20 18 13 13 15 12 4 9 15 21 27 32 35 38 40 39 37 35 32 29 28 26 25 23 21 18 17 18 19 20 18 17 15 14 14 13
Wind_Direction
61 57 60 213 231 240 233 193 181 186 144 126 120 121 156 164 283 278 268 291 320 107 309 240 235 271 270 254 248 206 203 218 226 216 205 202 203 207 209 211 213 213 213 210 210 210 210 211 212 213 214 215 216 217 219 218 213 211 208 205 206 204 204 208 216 222 222 209 199 187 162 153 154 145 121 93 61 35 28 11 343 330 322 316 301 284
55 58 241 225 222 226 220 183 152 132 115 108 131 132 180 183 247 263 253 307 345 99 269 321 312 285 268 260 269 194 185 217 224 218 213 211 211 214 215 216 216 217 216 214 214 212 211 211 212 213 214 214 215 216 216 215 215 214 207 204 209 208 201 201 213 210 180 169 170 157 142 137 136 132 119 93 75 60 55 46 25 9 359 357 347 324
21 289 255 242 209 147 105 135 132 123 108 88 130 133 285 254 275 289 300 330 359 47 273 340 11 293 279 277 260 197 187 223 225 222 221 217 212 213 217 218 218 219 217 216 215 212 210 211 211 213 215 215 216 218 217 214 215 214 205 201 208 207 192 188 196 184 160 157 153 147 139 134 136 133 122 109 97 90 83 74 59 44 32 26 18 5
333 249 240 209 148 129 84 103 114 109 100 88 122 137 267 270 321 292 302 325 350 46 256 32 17 299 300 320 296 196 188 223 226 224 227 224 219 219 219 218 217 218 218 217 216 211 209 210 212 214 215 215 216 217 217 213 212 213 207 204 207 203 191 184 182 172 164 160 154 153 146 137 142 139 127 118 107 99 94 84 70 58 49 42 38 37
251 242 201 130 127 150 137 103 119 131 246 297 161 166 208 229 201 218 279 327 347 12 41 57 11 315 329 336 308 288 157 194 209 224 230 229 227 225 223 221 220 220 221 220 216 212 211 212 215 216 216 217 217 217 218 216 213 211 210 209 206 201 193 185 180 176 173 167 163 162 156 152 158 157 143 126 113 104 97 87 74 62 53 49 53 59
259 258 183 125 84 115 145 205 184 158 191 305 241 200 189 177 188 211 346 20 30 352 345 35 -0 291 322 315 269 310 348 319 296 236 234 235 233 227 225 225 224 224 225 224 220 216 214 215 216 216 217 219 220 220 219 218 215 212 214 211 206 203 198 190 184 183 182 177 174 167 154 152 161 162 156 140 129 114 100 92 80 69 59 55 63 73
253 309 67 105 104 99 116 252 235 165 134 301 246 199 164 133 130 134 101 83 86 273 303 47 148 254 317 316 270 313 335 309 302 280 251 243 237 233 235 233 229 227 227 227 226 220 217 217 217 217 220 223 224 222 220 218 215 213 215 213 208 209 205 197 192 190 190 186 181 172 154 145 154 162 162 161 162 141 115 102 88 77 67 62 69 79
229 314 26 64 88 87 99 264 234 153 121 231 231 146 131 127 142 158 140 132 191 243 321 16 111 201 297 278 280 334 338 318 317 306 300 306 295 267 257 248 238 234 232 231 229 224 219 218 219 219 222 225 225 224 221 219 216 213 214 214 213 214 211 205 199 197 197 193 186 180 171 162 161 165 167 177 186 172 149 124 100 88 76 68 76 86
223 247 301 82 78 73 206 221 192 154 142 239 194 120 127 138 145 146 125 122 18 44 309 322 46 168 274 275 306 358 353 313 309 300 306 339 342 323 301 275 250 241 237 235 233 229 223 221 222 222 223 225 226 225 223 221 218 214 214 216 217 217 216 212 208 205 202 199 193 190 188 179 173 176 180 191 199 191 179 166 137 110 91 80 82 92
245 232 240 141 110 229 230 218 178 161 188 219 132 92 73 73 80 89 101 108 46 58 244 271 278 193 268 287 306 341 351 283 287 293 300 337 339 327 320 305 260 241 237 234 234 233 229 226 225 223 224 225 225 226 224 221 219 216 215 218 219 219 219 218 215 211 206 204 202 200 201 194 187 189 189 195 204 202 194 190 188 178 161 137 103 103
290 288 234 165 195 209 175 136 168 148 131 135 96 63 52 42 40 49 60 87 70 338 253 255 230 176 269 283 264 248 264 276 281 304 318 335 336 326 332 340 284 241 233 230 231 231 229 227 224 222 224 226 226 226 224 222 221 219 218 219 220 221 222 221 219 215 211 209 207 206 208 208 205 205 201 198 203 205 198 195 199 203 210 217 191 150
332 334 249 260 255 183 105 74 51 59 78 103 77 64 70 2 15 32 356 47 92 258 265 269 218 133 209 266 275 280 302 298 264 269 298 317 329 330 348 17 7 266 236 231 228 227 225 224 223 222 224 226 226 226 226 225 223 221 220 221 221 221 222 222 222 220 216 214 213 211 210 214 217 218 216 208 203 203 197 195 204 213 220 225 224 215
324 263 270 307 292 158 114 90 17 9 36 76 78 75 80 341 12 13 303 339 191 244 257 268 239 142 221 249 272 304 314 308 279 243 282 301 334 353 21 39 28 12 247 232 226 224 223 223 224 224 225 227 227 228 228 228 226 222 221 222 223 223 223 223 223 223 221 219 219 217 214 217 222 227 229 223 212 206 202 202 209 218 226 230 231 228
322 302 326 338 301 234 129 144 197 325 68 119 137 122 121 113 71 295 270 267 255 263 276 269 264 277 276 266 255 283 305 324 21 51 353 340 3 18 44 60 47 28 288 232 227 226 225 224 225 226 228 230 230 230 230 230 228 225 222 223 224 224 224 224 225 225 225 224 225 224 221 220 224 228 232 232 226 218 213 211 211 218 228 233 236 235
291 303 304 232 278 329 113 164 168 148 135 177 162 132 143 157 152 232 228 199 242 266 318 305 255 186 203 258 264 281 320 352 36 48 40 46 44 45 55 65 66 56 42 227 228 230 230 229 229 229 231 233 234 233 231 231 230 227 225 225 226 225 224 225 226 226 227 227 228 229 227 224 225 228 233 237 236 230 226 223 218 218 226 232 238 240
132 260 260 267 288 342 44 187 143 110 95 255 145 113 152 182 154 177 190 170 177 180 290 258 231 219 203 265 298 340 351 351 6 15 58 61 62 62 58 59 63 62 64 95 216 229 233 234 235 236 235 236 237 236 235 233 231 229 226 225 226 227 227 227 228 228 229 229 231 233 231 228 228 229 233 237 238 235 232 231 227 225 228 233 237 240
77 275 282 311 335 7 1 242 99 94 172 184 132 161 215 168 125 117 202 44 77 154 257 240 234 281 341 333 339 11 343 321 332 343 39 58 63 65 60 58 61 62 62 65 72 207 235 235 236 239 239 239 239 240 239 236 234 232 229 227 226 227 228 229 230 231 232 231 232 235 235 232 230 231 232 234 236 236 235 234 232 230 232 234 237 241
146 268 295 345 98 345 351 32 44 41 121 127 172 210 204 102 92 109 161 9 43 201 268 297 202 237 121 204 279 -0 286 290 311 326 17 50 58 63 62 63 67 66 64 63 64 65 56 240 239 242 243 244 244 243 242 239 238 237 235 232 230 229 230 231 232 234 236 234 233 235 237 235 232 232 232 233 235 236 236 236 233 230 233 235 238 243
119 261 297 308 191 312 349 27 7 358 55 114 170 179 115 123 168 58 131 140 180 219 284 310 272 228 201 214 199 185 210 244 321 344 15 39 48 56 60 66 71 71 67 63 63 64 63 65 74 252 253 253 251 250 248 245 242 241 238 236 235 234 233 232 234 236 238 238 237 238 239 239 236 233 232 232 233 235 235 235 232 231 232 235 239 244
79 125 283 294 281 305 358 31 251 308 357 30 55 35 33 133 160 160 137 161 188 203 253 303 314 265 226 225 191 180 200 215 337 15 22 27 41 54 59 65 71 73 72 68 65 63 61 62 67 74 73 281 267 264 262 256 251 249 246 243 241 239 236 234 235 237 239 241 241 241 240 240 239 236 234 234 233 235 236 234 233 232 232 233 238 242
51 89 250 292 326 330 314 260 192 191 256 12 20 352 350 81 104 101 89 116 139 161 192 213 284 266 248 232 189 174 191 210 196 109 40 31 47 59 64 70 73 73 73 71 68 64 61 60 62 68 73 72 71 19 287 274 269 265 258 253 250 247 243 240 238 238 240 243 244 245 244 244 242 239 237 236 236 237 237 236 235 234 234 234 236 240
40 118 191 285 334 305 244 246 189 170 166 153 178 201 172 130 101 80 333 318 74 136 177 163 233 267 260 233 209 187 192 215 212 167 75 49 55 66 71 74 73 71 71 69 67 66 65 64 62 63 66 69 75 77 62 11 317 290 276 269 263 258 254 251 247 243 241 242 246 250 250 249 248 245 242 240 239 238 238 237 237 237 238 238 238 240
126 104 107 266 271 244 254 273 81 144 134 118 124 130 134 132 120 135 207 254 280 134 165 139 197 270 264 245 228 208 218 252 279 273 67 60 65 77 81 79 74 71 70 66 65 65 64 65 65 64 63 62 63 66 68 70 56 342 303 290 280 272 268 264 259 253 246 242 244 250 253 253 252 249 247 245 242 240 239 239 240 240 241 242 242 244
89 81 54 297 293 303 301 325 24 42 86 96 37 68 117 145 139 155 176 177 190 195 153 140 243 266 277 284 265 249 301 302 292 193 88 74 87 92 87 83 78 72 66 63 62 61 60 61 61 60 59 54 49 47 47 47 47 37 351 306 290 285 282 277 271 265 258 250 245 247 252 255 256 254 251 248 246 244 242 241 242 243 243 244 245 246
355 275 92 12 330 334 337 348 354 351 44 110 291 325 102 107 97 101 100 81 159 213 165 167 233 254 273 314 343 347 329 322 313 133 94 82 100 101 89 83 79 72 66 63 59 57 57 56 54 52 50 48 43 37 32 29 26 25 19 354 314 295 288 283 278 273 269 262 253 248 248 251 255 258 256 251 247 247 247 244 244 243 243 243 244 246
177 201 146 132 241 249 275 278 267 287 313 0 314 296 271 105 104 109 85 90 185 242 174 166 217 272 286 317 332 320 328 345 348 16 56 93 103 101 91 80 75 71 68 63 58 56 55 52 47 42 39 36 31 26 23 17 12 12 11 6 353 332 307 292 286 281 277 272 263 256 251 248 249 254 257 255 252 253 254 251 248 245 241 240 241 243
130 87 180 162 187 204 206 226 226 185 214 269 286 261 256 137 108 106 103 132 191 194 205 210 201 278 281 283 292 291 320 358 295 311 4 106 106 100 91 79 74 72 64 59 56 52 46 42 36 31 29 21 13 9 6 0 355 350 348 348 346 343 335 317 299 290 284 279 274 268 263 259 255 254 257 258 256 256 257 255 252 248 242 237 236 238
101 354 243 167 200 217 208 229 237 151 212 227 198 228 250 247 114 121 160 202 169 136 261 245 196 203 250 249 254 267 291 268 255 285 335 116 109 99 94 84 79 72 59 48 42 36 32 29 24 20 14 4 357 350 343 340 337 335 332 327 326 326 325 319 310 303 295 286 282 278 275 274 270 266 263 261 256 256 257 255 251 247 242 238 234 234
119 262 235 172 255 264 239 249 256 199 248 247 197 213 231 216 177 182 207 199 155 180 246 228 185 206 235 236 236 234 219 241 280 295 152 139 115 91 94 92 80 63 46 34 26 19 16 13 8 5 360 352 346 337 330 324 319 317 317 315 315 313 308 304 303 305 304 299 296 293 290 286 282 278 275 270 263 258 256 253 249 246 243 240 236 233
123 248 225 172 292 300 276 262 239 193 247 295 247 226 221 211 205 208 222 205 182 219 243 209 196 224 229 220 225 217 200 233 259 195 160 145 105 85 93 89 70 49 32 20 12 4 358 355 351 348 345 341 337 331 325 321 316 314 313 311 310 307 303 299 296 296 297 298 301 302 300 296 292 288 283 278 271 263 258 256 255 253 248 240 235 231
101 253 243 123 326 293 284 288 259 193 200 248 258 248 235 237 236 228 232 214 198 243 257 227 224 248 247 228 233 246 241 195 184 179 167 129 99 109 101 78 52 33 17 5 358 350 344 339 335 334 332 330 328 325 320 317 314 312 311 310 308 304 301 298 296 293 291 292 295 296 296 297 296 293 288 282 277 272 270 267 264 260 248 233 227 227
96 260 342 74 309 268 249 274 277 271 263 255 253 246 232 232 231 220 214 194 186 223 251 244 241 255 250 225 229 252 224 169 177 184 161 115 94 103 88 56 31 14 3 355 348 342 336 331 326 324 322 319 318 317 315 313 311 308 307 305 303 301 300 298 297 294 292 292 292 291 292 293 293 291 289 286 283 282 279 273 265 255 239 225 222 224
156 188 199 122 253 258 228 243 264 328 318 270 242 222 219 220 222 230 247 227 201 200 219 233 239 243 226 172 171 203 190 169 193 199 142 77 81 94 63 28 11 359 352 347 342 337 333 328 324 320 316 314 312 310 309 309 307 306 305 302 300 299 297 296 296 295 293 292 292 291 290 289 288 286 284 285 285 284 279 270 261 250 232 223 221 222
153 183 216 172 193 257 264 273 35 344 266 252 240 217 216 219 220 227 243 245 229 213 204 233 259 258 206 170 165 177 174 119 330 296 316 321 188 127 40 4 353 345 342 339 335 333 330 325 322 319 316 313 310 307 305 305 305 304 302 302 301 299 297 296 294 293 293 292 291 291 290 288 285 282 279 278 279 279 275 266 259 247 228 221 220 219
141 185 224 170 173 243 271 64 51 257 246 259 292 272 228 211 201 215 247 276 277 260 281 331 318 285 217 191 161 139 84 11 341 304 296 279 203 167 357 345 338 335 334 333 330 328 327 324 321 319 317 314 311 308 306 305 305 304 302 302 301 300 299 298 295 294 294 293 292 291 288 286 283 279 275 273 273 274 270 262 255 240 224 220 220 218
170 175 187 166 180 211 129 122 185 243 274 309 321 329 13 27 62 180 289 317 325 261 218 23 305 257 245 173 104 29 338 335 329 312 298 260 216 241 330 327 324 324 325 326 325 323 323 321 319 318 316 314 311 308 307 306 306 304 302 302 301 300 299 298 296 296 295 295 295 293 288 283 277 272 269 268 270 269 264 258 248 232 220 218 217 214
162 143 157 208 216 165 163 214 238 294 310 314 326 346 16 8 21 82 254 294 322 305 199 141 128 277 258 230 268 298 310 338 336 323 318 283 259 287 309 309 310 315 317 319 319 318 318 318 316 315 314 311 309 308 307 306 305 302 300 300 300 299 298 297 296 296 297 297 296 293 288 282 273 265 261 262 266 266 261 256 245 227 216 213 210 207
150 158 169 189 232 120 121 283 309 325 285 268 269 278 271 206 220 185 148 250 327 348 352 164 236 283 264 258 264 250 126 25 329 292 310 318 292 294 299 299 304 309 311 313 314 313 314 314 313 312 311 309 308 308 307 306 304 301 299 298 298 297 296 295 295 296 297 297 295 291 286 279 272 265 258 259 264 263 258 253 241 226 215 210 205 200
64 45 119 136 236 98 124 221 241 210 239 247 250 277 315 330 196 156 82 227 261 334 354 350 300 298 295 291 267 170 120 75 244 272 307 319 309 303 303 303 306 308 309 311 311 311 312 314 312 311 310 309 309 309 308 307 305 302 299 297 297 294 293 293 295 296 296 296 294 290 282 274 270 263 256 256 259 256 253 246 231 217 209 203 198 194
29 20 63 122 230 207 154 203 237 224 242 245 241 281 317 345 130 107 51 252 269 315 337 338 316 318 320 312 279 163 181 238 255 291 309 310 306 306 308 310 312 313 314 314 311 310 311 312 311 310 309 311 312 312 311 309 307 302 299 297 294 291 291 293 294 295 295 294 293 287 277 270 265 257 249 248 250 250 250 239 220 205 198 193 191 192
358 349 24 147 197 207 182 219 274 255 242 247 266 297 325 9 123 134 216 242 283 311 323 326 317 319 322 308 274 232 263 281 292 301 305 304 304 307 310 312 313 314 315 315 313 311 311 311 310 309 310 313 315 314 314 311 305 299 296 294 290 288 291 293 294 294 294 294 292 284 274 267 262 252 242 241 243 243 237 222 204 194 189 187 187 191
349 335 340 88 151 202 179 185 282 281 251 230 288 335 6 70 173 223 267 286 298 311 327 332 321 317 315 301 288 285 292 300 304 304 305 306 307 310 311 312 311 311 311 311 310 310 310 309 308 308 311 315 316 314 313 308 300 295 292 287 286 289 293 295 295 294 292 291 289 283 275 266 255 242 235 238 237 226 208 193 183 180 180 181 186 193
180 229 303 258 208 226 142 149 265 266 255 278 318 6 50 96 258 286 300 305 305 314 323 321 314 314 313 306 305 305 306 308 308 306 308 309 308 310 311 311 310 310 309 309 308 308 309 306 306 308 311 314 316 313 309 304 298 292 286 283 286 292 295 294 293 291 287 285 283 279 271 257 239 229 228 223 209 193 180 171 169 172 175 180 190 201
219 187 239 253 217 137 167 190 203 204 194 355 311 217 62 321 307 304 301 292 288 301 311 308 306 309 310 310 312 312 311 312 310 308 309 308 307 308 309 310 311 309 308 307 307 307 306 303 303 307 309 313 315 312 305 301 296 289 284 285 289 291 290 290 290 287 281 275 273 269 254 234 218 210 202 188 176 169 163 161 163 167 168 170 173 179
232 181 190 226 237 205 206 231 260 272 285 303 283 254 310 323 315 308 301 283 274 286 303 306 305 305 307 309 310 309 310 311 310 309 307 303 301 302 304 307 309 308 306 305 305 305 303 301 303 306 308 312 314 310 304 299 293 287 286 288 290 290 290 289 285 278 268 259 255 243 221 201 188 180 172 164 159 157 153 152 155 157 157 156 156 163
281 277 178 193 263 295 273 257 264 276 286 293 280 277 303 312 306 304 308 296 285 292 302 304 305 305 305 305 304 304 305 306 307 306 303 299 296 296 298 302 304 304 303 302 302 303 302 300 302 305 308 311 311 308 303 298 291 289 291 294 295 296 295 286 272 256 238 228 220 206 189 172 158 152 148 142 140 138 134 133 132 132 136 140 146 161
297 323 192 218 282 315 293 276 289 292 291 294 294 294 301 305 300 303 313 310 304 304 304 305 308 310 308 305 302 301 301 302 303 303 301 298 295 292 294 297 299 300 299 298 300 301 300 299 301 305 308 310 308 306 303 298 295 296 298 298 299 300 295 273 238 218 206 195 183 171 160 147 136 131 128 124 124 122 120 119 118 120 129 138 147 160
305 20 12 237 236 239 260 282 291 290 288 291 295 296 301 305 303 304 309 309 308 307 305 303 304 305 305 304 302 300 299 299 299 299 298 297 294 292 292 293 294 295 295 294 295 297 297 298 301 305 307 306 304 304 303 299 299 300 300 301 301 299 283 221 191 179 167 155 146 141 137 132 128 127 125 123 122 118 114 115 116 121 129 134 136 133
255 308 287 249 274 285 281 283 286 288 291 295 297 299 301 304 304 304 306 306 305 305 304 301 298 298 299 298 297 296 295 294 294 294 294 293 292 292 292 292 293 292 290 290 292 293 295 297 300 304 304 300 299 301 296 292 297 302 305 304 286 246 191 165 155 146 136 130 129 129 128 125 124 123 123 123 122 119 117 118 118 120 122 119 111 97
232 275 266 258 295 280 264 276 286 291 289 291 297 302 305 306 306 304 303 302 303 303 303 301 299 297 294 293 293 293 292 292 293 293 292 291 291 292 292 293 293 290 287 288 289 290 293 296 299 302 299 295 293 283 273 279 292 307 112 124 130 134 135 135 132 129 127 125 126 127 126 123 121 123 125 127 126 124 122 120 118 116 110 102 92 80
227 248 244 224 249 259 268 281 287 285 274 283 294 300 302 304 303 300 298 299 299 300 302 302 298 294 294 296 296 294 292 292 292 292 291 290 290 291 292 292 291 288 287 287 287 289 292 295 297 297 293 289 276 250 251 267 250 143 133 125 120 119 120 123 124 125 126 124 123 124 125 126 129 133 135 133 130 127 124 120 116 111 103 92 81 72